This demonstration page uses our WeatherBlox Daily Observations layout. Learn more.

Left ArrowRight Arrow

39.12711, -84.51439

Hourly Observations for June 24, 2018

Temp ( °F °C ) Dew Point ( °F °C ) Humidity (%) Winds ( mph kmh ) Pressure ( in mb ) Visibility ( mi km ) Precip ( " mm )
12:53 am 00:53 Mostly Cloudy 71 21.7 67 19.4 87 87 N N/A 29.85 1011 10 16 N/A
1:53 am 01:53 Clear 68 20 67 19.4 96 96 N N/A 29.85 1011 10 16 N/A
2:53 am 02:53 Clear 66 18.9 66 18.9 100 100 N N/A 29.85 1011 7 11 N/A
3:53 am 03:53 Mostly Clear with Mist and Fog 66 18.9 66 18.9 100 100 N N/A 29.85 1011 5 8 N/A
4:04 am 04:04 Clear with Mist and Fog 65 18.3 65 18.3 100 100 N N/A 29.88 1012 2 3 N/A
4:09 am 04:09 Clear with Mist and Fog 65 18.3 65 18.3 100 100 N N/A 29.88 1012 3 5 N/A
4:53 am 04:53 Clear with Mist and Fog 65 18.3 65 18.3 100 100 N N/A 29.85 1011 4 6 N/A
5:53 am 05:53 Cloudy with Mist and Fog 64 17.8 64 17.8 100 100 N N/A 29.87 1011 6 10 N/A
6:53 am 06:53 Mostly Cloudy 67 19.4 67 19.4 100 100 N N/A 29.89 1012 7 11 N/A
7:53 am 07:53 Mostly Sunny 70 21.1 69 20.6 97 97 N N/A 29.89 1012 8 13 N/A
8:53 am 08:53 Sunny 74 23.3 68 20 82 82 N N/A 29.89 1012 10 16 N/A
9:53 am 09:53 Mostly Cloudy 77 25 67 19.4 71 71 WNW 9 15 29.92 1013 10 16 N/A
10:53 am 10:53 Mostly Cloudy 79 26.1 66 18.9 65 65 WNW 8 13 29.93 1014 10 16 N/A
11:53 am 11:53 Mostly Cloudy 80 26.7 67 19.4 64 64 W 10 17 29.95 1014 10 16 N/A
12:53 pm 12:53 Mostly Cloudy 82 27.8 66 18.9 58 58 W 12 19 29.93 1014 10 16 N/A
1:53 pm 13:53 Mostly Cloudy 81 27.2 66 18.9 61 61 W 8 13 29.95 1014 10 16 N/A
2:53 pm 14:53 Partly Cloudy 83 28.3 66 18.9 57 57 VRB 7 11 29.95 1014 10 16 N/A
3:53 pm 15:53 Mostly Cloudy 84 28.9 64 17.8 51 51 W 10 17 29.95 1014 10 16 N/A
4:53 pm 16:53 Mostly Cloudy 82 27.8 65 18.3 56 56 WNW 8 13 29.95 1014 10 16 N/A
5:53 pm 17:53 Partly Cloudy 83 28.3 65 18.3 55 55 NNW 5 7 29.95 1014 10 16 N/A
6:53 pm 18:53 Partly Cloudy 83 28.3 65 18.3 55 55 NW 6 9 29.95 1014 10 16 N/A
7:53 pm 19:53 Mostly Cloudy 82 27.8 66 18.9 58 58 WNW 6 9 29.94 1014 10 16 N/A
8:53 pm 20:53 Mostly Sunny 77 25 68 20 74 74 N N/A 29.94 1014 10 16 N/A
9:53 pm 21:53 Partly Cloudy 73 22.8 69 20.6 87 87 N N/A 29.98 1015 10 16 N/A
10:53 pm 22:53 Clear 72 22.2 69 20.6 91 91 NNE 5 7 29.99 1016 10 16 N/A
11:53 pm 23:53 Clear 71 21.7 69 20.6 94 94 N N/A 30.00 1016 10 16 N/A

Powered by AerisWeather